[[{"header":{"parameterUnit":"m.s-1","parameterCategory":1,"la1":30.2991,"la2":30.254,"lo1":-89.0895,"lo2":-89.0444,"dy":0.0017,"dx":0.0017,"nx":28,"ny":28,"refTime":"2025-07-22T09:00:00:Z","depth":0,"parameterNumber":2,"parameterNumberName":"U-component_of_WINDS"},"data":[0,0,0,0,0,0,0,0,0,0,0,0,0,0,0,0,0,0,0,0,0,0,0,0,0,0,0,0,0,0,0,0,0,0,0,0,0,0,0,0,0,0,0,0,0,0,0,0,0,0,0,0,0,0,0,0,0,0,1.935,1.935,0,1.9362,1.9362,1.9362,1.925,1.9246,1.9243,1.924,1.9258,1.9261,1.9265,0,0,0,0,0,0,0,0,0,0,0,0,0,1.9235,1.9238,1.935,1.935,1.935,1.9362,1.9362,1.9362,1.925,1.9246,1.9242,1.9239,1.9257,1.9261,1.9265,0,0,0,0,0,0,0,0,0,0,0,0,0,1.927,1.9239,1.935,1.9295,1.9291,1.9362,1.9362,1.9362,1.9251,1.9246,1.9241,1.9237,1.9256,1.926,1.9266,1.9391,0,0,1.9281,1.9283,0,0,0,0,0,0,0,0,1.9268,1.9275,1.9303,1.9299,1.9294,1.9299,1.9328,1.9372,1.9252,1.9266,1.924,1.9235,1.9276,1.9279,1.9292,1.9392,1.9393,1.9282,1.9285,1.9287,1.9288,0,0,0,0,0,0,0,1.9266,1.9273,1.9355,1.9304,1.9298,1.9272,1.9272,1.9336,1.9298,1.9265,1.9256,1.9259,1.9273,1.9287,1.9291,1.9393,1.9281,1.9286,1.9289,1.9291,1.96,1.9605,0,0,0,0,0,0,1.927,1.9272,1.9354,1.9355,1.9269,1.9278,1.9278,1.9303,1.9296,1.9291,1.9263,1.9254,1.9281,1.9286,1.9292,1.944,1.9287,1.9292,1.9294,1.9595,1.9601,1.9607,0,0,0,0,0,0,1.9268,1.9279,1.9354,1.9311,1.9319,1.9285,1.9314,1.9305,1.932,1.9295,1.9288,1.9285,1.9277,1.9284,1.9368,1.9439,1.9294,1.9298,1.9589,1.9597,1.9604,1.9738,0,0,0,0,0,0,1.9265,1.9279,1.9324,1.9313,1.9322,1.9428,1.9318,1.9309,1.9328,1.9316,1.9314,1.9309,1.9274,1.9361,1.9373,1.9444,1.9302,1.9582,1.9592,1.9602,1.9727,1.9749,1.9768,0,0,0,0,0,1.9262,1.9362,1.9327,1.9338,1.9378,1.9433,1.9438,1.9394,1.9334,1.9381,1.9366,1.9309,1.9429,1.937,1.9383,1.9456,1.9578,1.959,1.9601,1.9718,1.9745,1.9768,0,0,0,0,0,0,1.9384,1.936,1.9321,1.942,1.9429,1.9413,1.9471,1.9424,1.9451,1.9439,1.9385,1.9386,1.9479,1.9475,1.941,1.9579,1.9493,1.9508,1.9578,1.9604,1.9624,1.9624,1.9307,0,0,0,0,0,1.9422,1.9467,1.9444,1.9534,1.954,1.9506,1.9527,1.9493,1.9501,1.9505,1.9495,1.9507,1.9547,1.9575,1.961,1.9726,1.9725,1.9783,1.9803,1.9821,1.9835,1.9898,1.9924,1.9645,1.9645,1.9645,0,0,1.9503,1.9495,1.9526,1.9558,1.9561,1.9611,1.9509,1.9565,1.9602,1.9513,1.9591,1.9586,1.9595,1.9695,1.9739,1.9696,1.9912,1.9835,1.9849,1.9854,1.9913,1.9939,1.9963,1.9653,1.9651,1.965,0,0,1.9674,1.9672,1.9747,1.9753,1.9758,1.9734,1.9753,1.9744,1.9737,1.9814,1.9749,1.9793,1.9863,1.9873,1.9887,2.0065,2.0015,2.0078,2.0187,2.0249,2.0271,2.0291,2.0357,2.0381,2.0092,2.0092,2.0092,0,1.9774,1.9844,1.9793,1.9854,1.9871,1.9792,1.987,1.9878,1.9896,1.991,1.9861,1.9948,1.9949,2.0052,2.0095,2.0109,2.013,2.0079,2.0272,2.0291,2.0308,2.037,2.0395,2.01,2.0099,2.0098,2.0097,0,1.9967,2.0017,2.0078,2.0096,2.012,2.0189,2.0151,2.0182,2.0146,2.0129,2.021,2.0208,2.0243,2.0264,2.023,2.0364,2.0337,2.0281,2.0194,2.0344,2.0401,2.0424,2.0111,2.0108,2.0106,2.0104,0,0,2.0216,2.0206,2.0229,2.0238,2.0238,2.0277,2.0344,2.0377,2.0406,2.0421,2.0477,2.0539,2.0488,2.0504,2.047,2.0525,2.0669,2.0462,2.0462,2.0503,2.082,2.0863,2.0892,2.0635,2.0639,2.0643,2.082,0,2.0385,2.0497,2.0454,2.0571,2.0618,2.0544,2.0602,2.0611,2.0597,2.0636,2.0621,2.0666,2.0593,2.0603,2.0654,2.0641,2.0733,2.0627,2.069,2.0693,2.0692,2.0921,2.0967,2.1134,2.0842,2.0845,2.0848,0,2.0597,2.062,2.0741,2.0735,2.0754,2.0807,2.0835,2.0873,2.0882,2.0868,2.0887,2.0842,2.091,2.0822,2.0916,2.0846,2.0869,2.0867,2.0873,2.0878,2.0781,2.0936,2.1186,2.1212,2.0883,2.088,2.0877,0,2.077,2.0831,2.0912,2.0921,2.0916,2.0955,2.0956,2.0959,2.0983,2.1008,2.1023,2.1056,2.1075,2.1103,2.107,2.1008,2.117,2.1079,2.1163,2.1164,2.1202,2.12,2.1462,2.1214,2.1213,2.1213,2.1212,0,2.0964,2.1041,2.0989,2.104,2.1125,2.1076,2.1163,2.1155,2.116,2.1209,2.1147,2.1195,2.1146,2.119,2.1164,2.1248,2.1257,2.1249,2.1242,2.1256,2.1257,2.1272,2.126,2.1219,2.1218,2.1217,2.1215,0,2.1172,2.1139,2.1223,2.1211,2.121,2.1275,2.1266,2.1313,2.1294,2.1357,2.1369,2.1341,2.139,2.1359,2.1408,2.1391,2.1502,2.1477,2.1498,2.1493,2.1579,2.1573,2.1861,2.1897,2.1624,2.1627,2.1629,0,2.1298,2.1356,2.1351,2.1379,2.1383,2.1428,2.1451,2.1406,2.1433,2.1449,2.1495,2.1538,2.1571,2.1653,2.1639,2.1677,2.1654,2.1753,2.166,2.1673,2.1659,2.1656,2.1663,2.1772,2.1775,2.1778,2.178,0,2.1528,2.151,2.1544,2.1576,2.1605,2.1627,2.1645,2.1671,2.1626,2.1661,2.1709,2.1734,2.1785,2.183,2.1862,2.1865,2.1817,2.1809,2.1831,2.1847,2.1858,2.1856,2.1552,2.1803,2.1801,2.1799,2.1798,2.1797,2.17,2.1749,2.1754,2.1796,2.1804,2.1822,2.1866,2.1854,2.1893,2.1929,2.1901,2.196,2.197,2.2008,2.2017,2.2064,2.2024,2.2055,2.2064,2.2073,2.2086,2.1849,2.2069,2.2069,2.2068,2.2067,2.2067,0,2.1929,2.1928,2.1967,2.1993,2.2027,2.1976,2.1994,2.2026,2.2078,2.209,2.2124,2.2181,2.2225,2.2214,2.2254,2.2294,2.2273,2.2306,2.2304,2.2306,2.2118,2.2096,2.2323,2.2323,2.2323,2.2323,2.2322,2.2322,2.2052,2.2132,2.2115,2.22,2.2199,2.2255,2.227,2.2287,2.2297,2.2364,2.2399,2.2391,2.2395,2.2435,2.2474,2.247,2.2489,2.2531,2.2519,2.2344,2.2319,2.2295,2.2274,2.2535,2.2535,2.2703,2.2705,2.2706]},{"header":{"parameterUnit":"m.s-1","parameterCategory":1,"la1":30.2991,"la2":30.254,"lo1":-89.0895,"lo2":-89.0444,"dy":0.0017,"dx":0.0017,"nx":28,"ny":28,"refTime":"2025-07-22T09:00:00:Z","depth":0,"parameterNumber":3,"parameterNumberName":"V-component_of_WINDS"},"data":[0,0,0,0,0,0,0,0,0,0,0,0,0,0,0,0,0,0,0,0,0,0,0,0,0,0,0,0,0,0,0,0,0,0,0,0,0,0,0,0,0,0,0,0,0,0,0,0,0,0,0,0,0,0,0,0,0,0,-1.6731,-1.6731,0,-1.6771,-1.6771,-1.6771,-1.6747,-1.6746,-1.6745,-1.6744,-1.6785,-1.6787,-1.6789,0,0,0,0,0,0,0,0,0,0,0,0,0,-1.6635,-1.6637,-1.6731,-1.6731,-1.6732,-1.677,-1.6771,-1.6772,-1.6747,-1.6746,-1.6744,-1.6743,-1.6784,-1.6787,-1.679,0,0,0,0,0,0,0,0,0,0,0,0,0,-1.6676,-1.6638,-1.6731,-1.6724,-1.6724,-1.677,-1.6771,-1.6772,-1.6748,-1.6746,-1.6744,-1.6742,-1.6784,-1.6787,-1.679,-1.6845,0,0,-1.68,-1.6801,0,0,0,0,0,0,0,0,-1.6674,-1.668,-1.6725,-1.6725,-1.6725,-1.6752,-1.6752,-1.6796,-1.6748,-1.6739,-1.6744,-1.6742,-1.6776,-1.6779,-1.6791,-1.6847,-1.6849,-1.68,-1.6802,-1.6804,-1.6805,0,0,0,0,0,0,0,-1.6671,-1.6678,-1.6747,-1.6725,-1.6725,-1.672,-1.6724,-1.6761,-1.6766,-1.6739,-1.6738,-1.6743,-1.6775,-1.6788,-1.6791,-1.6849,-1.68,-1.6803,-1.6805,-1.6806,-1.6953,-1.6955,0,0,0,0,0,0,-1.6668,-1.6676,-1.6745,-1.6748,-1.6694,-1.6723,-1.6727,-1.6745,-1.6766,-1.6767,-1.6744,-1.6741,-1.6783,-1.6788,-1.6793,-1.6859,-1.6804,-1.6807,-1.6809,-1.6951,-1.6954,-1.6956,0,0,0,0,0,0,-1.6667,-1.6675,-1.6744,-1.6711,-1.672,-1.6726,-1.6747,-1.6747,-1.6759,-1.677,-1.6771,-1.6756,-1.6782,-1.6788,-1.6832,-1.686,-1.6808,-1.6811,-1.6949,-1.6952,-1.6955,-1.6991,0,0,0,0,0,0,-1.6664,-1.6674,-1.6695,-1.6712,-1.6721,-1.6782,-1.6748,-1.6749,-1.6765,-1.6761,-1.6781,-1.6782,-1.6781,-1.6828,-1.6836,-1.6863,-1.6814,-1.6947,-1.695,-1.6954,-1.6987,-1.6995,-1.7001,0,0,0,0,0,-1.6661,-1.6704,-1.6696,-1.6705,-1.6747,-1.6784,-1.6789,-1.6787,-1.6767,-1.6788,-1.6795,-1.6781,-1.6856,-1.6832,-1.6841,-1.687,-1.6945,-1.6949,-1.6954,-1.6984,-1.6993,-1.7001,0,0,0,0,0,0,-1.669,-1.6706,-1.6698,-1.6747,-1.6764,-1.6779,-1.6806,-1.6796,-1.6819,-1.6815,-1.6812,-1.6816,-1.6862,-1.6871,-1.6844,-1.6925,-1.6897,-1.6904,-1.6917,-1.6926,-1.6933,-1.693,-1.6816,0,0,0,0,0,-1.6702,-1.673,-1.6743,-1.6785,-1.6794,-1.6799,-1.6815,-1.6811,-1.6829,-1.6836,-1.6846,-1.6864,-1.6891,-1.6909,-1.6935,-1.6989,-1.6993,-1.7013,-1.702,-1.7026,-1.7031,-1.706,-1.707,-1.697,-1.697,-1.697,0,0,-1.6728,-1.674,-1.6758,-1.6792,-1.6804,-1.6834,-1.6805,-1.6837,-1.6859,-1.6841,-1.6883,-1.6891,-1.6911,-1.696,-1.6982,-1.6969,-1.7059,-1.7031,-1.7036,-1.7038,-1.7066,-1.7075,-1.7083,-1.6973,-1.6972,-1.6972,0,0,-1.6789,-1.6801,-1.6838,-1.6852,-1.6871,-1.6874,-1.6883,-1.69,-1.6905,-1.6947,-1.6934,-1.696,-1.7008,-1.7022,-1.7036,-1.7104,-1.7093,-1.7113,-1.7148,-1.7177,-1.7185,-1.7192,-1.7216,-1.7224,-1.7118,-1.7118,-1.7118,0,-1.6818,-1.6862,-1.6858,-1.6892,-1.6907,-1.6892,-1.693,-1.6943,-1.6971,-1.6982,-1.6966,-1.7025,-1.7038,-1.709,-1.7107,-1.7119,-1.7129,-1.711,-1.7184,-1.7191,-1.7197,-1.722,-1.7229,-1.712,-1.712,-1.712,-1.712,0,-1.6897,-1.6927,-1.6955,-1.6981,-1.7,-1.7036,-1.7038,-1.7057,-1.7053,-1.7057,-1.7101,-1.7115,-1.7144,-1.7156,-1.7152,-1.7208,-1.7199,-1.7184,-1.7156,-1.7209,-1.723,-1.7239,-1.7124,-1.7123,-1.7122,-1.7122,0,0,-1.6977,-1.7002,-1.7012,-1.7024,-1.7045,-1.7069,-1.7104,-1.7132,-1.7148,-1.7168,-1.7198,-1.7238,-1.7224,-1.724,-1.7237,-1.7263,-1.7316,-1.7244,-1.7245,-1.7257,-1.7379,-1.739,-1.74,-1.7309,-1.731,-1.7312,-1.7377,0,-1.7039,-1.71,-1.7098,-1.7155,-1.7183,-1.717,-1.7201,-1.7217,-1.7223,-1.7248,-1.7254,-1.7283,-1.7263,-1.7272,-1.7296,-1.7304,-1.734,-1.7299,-1.7336,-1.7337,-1.7331,-1.7411,-1.7423,-1.7484,-1.7385,-1.7387,-1.7388,0,-1.712,-1.7142,-1.7202,-1.7219,-1.7231,-1.7258,-1.7284,-1.7308,-1.7327,-1.7329,-1.7347,-1.7341,-1.7377,-1.7349,-1.7399,-1.7371,-1.7386,-1.7392,-1.7395,-1.7398,-1.7365,-1.7416,-1.7503,-1.7512,-1.7401,-1.74,-1.7399,0,-1.7172,-1.7217,-1.7258,-1.7269,-1.7291,-1.731,-1.732,-1.7338,-1.7355,-1.7377,-1.7388,-1.7415,-1.743,-1.7451,-1.7452,-1.7431,-1.7502,-1.7474,-1.7506,-1.7506,-1.752,-1.7519,-1.7611,-1.7531,-1.7531,-1.7531,-1.7531,0,-1.7242,-1.7278,-1.7282,-1.7308,-1.7349,-1.7347,-1.7388,-1.7396,-1.7412,-1.7439,-1.7429,-1.7455,-1.7456,-1.7482,-1.7484,-1.7525,-1.7532,-1.7535,-1.7534,-1.7535,-1.7535,-1.7545,-1.754,-1.7533,-1.7533,-1.7532,-1.7532,0,-1.7306,-1.731,-1.7354,-1.7371,-1.7377,-1.7406,-1.7421,-1.7445,-1.745,-1.7485,-1.7493,-1.7501,-1.7532,-1.7536,-1.7571,-1.7572,-1.7622,-1.7618,-1.7616,-1.7615,-1.7646,-1.7643,-1.7746,-1.776,-1.7672,-1.7673,-1.7673,0,-1.735,-1.7378,-1.7398,-1.7415,-1.7427,-1.7455,-1.7472,-1.7472,-1.749,-1.7515,-1.7536,-1.7566,-1.759,-1.764,-1.7649,-1.7677,-1.7673,-1.7707,-1.7677,-1.7677,-1.7673,-1.7671,-1.7674,-1.7713,-1.7714,-1.7715,-1.7715,0,-1.7427,-1.7428,-1.7453,-1.7479,-1.75,-1.7521,-1.754,-1.7555,-1.7558,-1.7579,-1.7611,-1.7629,-1.7666,-1.7696,-1.7723,-1.7734,-1.7725,-1.7725,-1.7734,-1.7734,-1.7732,-1.7733,-1.7631,-1.7722,-1.7722,-1.7721,-1.7721,-1.772,-1.7482,-1.7507,-1.7525,-1.7553,-1.7568,-1.7587,-1.7611,-1.7619,-1.7645,-1.7675,-1.7673,-1.7708,-1.7727,-1.7763,-1.7776,-1.7803,-1.7792,-1.7804,-1.7807,-1.781,-1.7813,-1.7728,-1.7808,-1.7808,-1.7808,-1.7807,-1.7807,0,-1.7559,-1.757,-1.7596,-1.7624,-1.7647,-1.7637,-1.7658,-1.7678,-1.7708,-1.7726,-1.775,-1.7786,-1.7816,-1.7828,-1.7856,-1.7876,-1.7873,-1.7883,-1.7882,-1.7884,-1.7822,-1.7811,-1.7886,-1.7886,-1.7886,-1.7886,-1.7886,-1.7886,-1.7601,-1.7642,-1.7645,-1.7693,-1.7704,-1.7738,-1.7751,-1.7768,-1.7783,-1.7824,-1.7848,-1.7856,-1.7872,-1.7902,-1.7928,-1.7931,-1.7942,-1.7954,-1.7955,-1.7897,-1.7889,-1.7881,-1.7871,-1.7957,-1.7957,-1.8016,-1.8016,-1.8017]}]]